******** Week 353 almanac for PRN-1 ******** ID: 1 Health: 0 Eccentricity: 0.00136089325 Time of Applicability(s): 233472 Orbital Inclination(rad): 0.9583568941 Rate of Right Ascen(r/s): -8.148910863e-09 SQRT(A) (m 1/2): 5153.581543 Right Ascen at Week(rad): -2.269155687 Argument of Perigee(rad): -0.01855158016 Mean Anom(rad): -1.03742117 Af0(s): 0.0002720764282 Af1(s/s): -3.637979e-12 week: 353 ******** Week 353 almanac for PRN-2 ******** ID: 2 Health: 0 Eccentricity: 0.01697444916 Time of Applicability(s): 233472 Orbital Inclination(rad): 0.963893606 Rate of Right Ascen(r/s): -8.023191341e-09 SQRT(A) (m 1/2): 5153.563477 Right Ascen at Week(rad): -2.43193292 Argument of Perigee(rad): -0.8512855597 Mean Anom(rad): 0.3517871851 Af0(s): 1.281246338e-05 Af1(s/s): 7.275958e-12 week: 353 ******** Week 353 almanac for PRN-3 ******** ID: 3 Health: 0 Eccentricity: 0.006340026855 Time of Applicability(s): 233472 Orbital Inclination(rad): 0.9925538798 Rate of Right Ascen(r/s): -7.611745631e-09 SQRT(A) (m 1/2): 5153.611816 Right Ascen at Week(rad): -1.283199273 Argument of Perigee(rad): 1.211020907 Mean Anom(rad): 3.00643569 Af0(s): 0.000474061145 Af1(s/s): -1.091394e-11 week: 353 ******** Week 353 almanac for PRN-4 ******** ID: 4 Health: 0 Eccentricity: 0.00372838974 Time of Applicability(s): 233472 Orbital Inclination(rad): 0.970502906 Rate of Right Ascen(r/s): -7.577458489e-09 SQRT(A) (m 1/2): 5153.704102 Right Ascen at Week(rad): -0.2120039347 Argument of Perigee(rad): -2.914278124 Mean Anom(rad): -0.2150348201 Af0(s): 3.014697266e-05 Af1(s/s): 3.637979e-12 week: 353 ******** Week 353 almanac for PRN-5 ******** ID: 5 Health: 0 Eccentricity: 0.005372524261 Time of Applicability(s): 233472 Orbital Inclination(rad): 0.9791195637 Rate of Right Ascen(r/s): -7.760323248e-09 SQRT(A) (m 1/2): 5153.634277 Right Ascen at Week(rad): -1.342340299 Argument of Perigee(rad): 1.426189427 Mean Anom(rad): 0.3863886384 Af0(s): -0.0001793744873 Af1(s/s): 0 week: 353 ******** Week 353 almanac for PRN-6 ******** ID: 6 Health: 0 Eccentricity: 0.003853321075 Time of Applicability(s): 233472 Orbital Inclination(rad): 0.9873167736 Rate of Right Ascen(r/s): -7.863184676e-09 SQRT(A) (m 1/2): 5153.560547 Right Ascen at Week(rad): -2.319992395 Argument of Perigee(rad): -0.627209391 Mean Anom(rad): -1.892905329 Af0(s): -0.0004755684936 Af1(s/s): -3.637979e-12 week: 353 ******** Week 353 almanac for PRN-7 ******** ID: 7 Health: 0 Eccentricity: 0.02016592026 Time of Applicability(s): 233472 Orbital Inclination(rad): 0.9507529034 Rate of Right Ascen(r/s): -7.897471818e-09 SQRT(A) (m 1/2): 5153.578613 Right Ascen at Week(rad): 0.7966509764 Argument of Perigee(rad): -2.00557839 Mean Anom(rad): -2.804990606 Af0(s): -0.0001062680786 Af1(s/s): -3.637979e-12 week: 353 ******** Week 353 almanac for PRN-8 ******** ID: 8 Health: 0 Eccentricity: 0.0114030838 Time of Applicability(s): 233472 Orbital Inclination(rad): 0.9445091222 Rate of Right Ascen(r/s): -7.943188008e-09 SQRT(A) (m 1/2): 5153.618652 Right Ascen at Week(rad): 2.845225769 Argument of Perigee(rad): 0.4994774023 Mean Anom(rad): 0.04842226075 Af0(s): 0.0003986937134 Af1(s/s): -3.637979e-12 week: 353 ******** Week 353 almanac for PRN-9 ******** ID: 9 Health: 0 Eccentricity: 0.00337934494 Time of Applicability(s): 233472 Orbital Inclination(rad): 0.9646246437 Rate of Right Ascen(r/s): -7.634603726e-09 SQRT(A) (m 1/2): 5153.532227 Right Ascen at Week(rad): -0.275880228 Argument of Perigee(rad): 2.069972626 Mean Anom(rad): 0.621001188 Af0(s): 0.0006089688477 Af1(s/s): 0 week: 353 ******** Week 353 almanac for PRN-10 ******** ID: 10 Health: 0 Eccentricity: 0.01097679138 Time of Applicability(s): 233472 Orbital Inclination(rad): 0.9921044714 Rate of Right Ascen(r/s): -7.600316584e-09 SQRT(A) (m 1/2): 5153.609375 Right Ascen at Week(rad): -1.285709968 Argument of Perigee(rad): -2.267787613 Mean Anom(rad): 2.040405671 Af0(s): -0.0004604950073 Af1(s/s): -3.637979e-12 week: 353 ******** Week 353 almanac for PRN-11 ******** ID: 11 Health: 0 Eccentricity: 0.002237796783 Time of Applicability(s): 233472 Orbital Inclination(rad): 0.964163251 Rate of Right Ascen(r/s): -8.091765626e-09 SQRT(A) (m 1/2): 5153.725586 Right Ascen at Week(rad): -2.300136032 Argument of Perigee(rad): -2.249544627 Mean Anom(rad): -0.9289369705 Af0(s): -0.0003760834839 Af1(s/s): 1.455192e-11 week: 353 ******** Week 353 almanac for PRN-12 ******** ID: 12 Health: 0 Eccentricity: 0.009064674377 Time of Applicability(s): 233472 Orbital Inclination(rad): 0.9589141605 Rate of Right Ascen(r/s): -7.703178011e-09 SQRT(A) (m 1/2): 5153.515137 Right Ascen at Week(rad): 1.914591533 Argument of Perigee(rad): 1.53364523 Mean Anom(rad): 2.858447365 Af0(s): -0.0004793368652 Af1(s/s): 0 week: 353 ******** Week 353 almanac for PRN-13 ******** ID: 13 Health: 0 Eccentricity: 0.009896278381 Time of Applicability(s): 233472 Orbital Inclination(rad): 0.9761954128 Rate of Right Ascen(r/s): -7.566029441e-09 SQRT(A) (m 1/2): 5153.625 Right Ascen at Week(rad): -0.1015108791 Argument of Perigee(rad): 1.002610368 Mean Anom(rad): -0.2277676846 Af0(s): 0.0005449065308 Af1(s/s): 0 week: 353 ******** Week 353 almanac for PRN-14 ******** ID: 14 Health: 0 Eccentricity: 0.006495475769 Time of Applicability(s): 233472 Orbital Inclination(rad): 0.9422261274 Rate of Right Ascen(r/s): -7.920329913e-09 SQRT(A) (m 1/2): 5153.589844 Right Ascen at Week(rad): 1.860714577 Argument of Perigee(rad): -2.762917738 Mean Anom(rad): 2.663229584 Af0(s): 0.0005758071777 Af1(s/s): 3.637979e-12 week: 353 ******** Week 353 almanac for PRN-15 ******** ID: 15 Health: 0 Eccentricity: 0.01659202576 Time of Applicability(s): 233472 Orbital Inclination(rad): 0.9423998986 Rate of Right Ascen(r/s): -7.886042771e-09 SQRT(A) (m 1/2): 5153.623047 Right Ascen at Week(rad): -0.4186906186 Argument of Perigee(rad): 1.493599194 Mean Anom(rad): -0.9619385299 Af0(s): 0.000297701355 Af1(s/s): 3.637979e-12 week: 353 ******** Week 353 almanac for PRN-16 ******** ID: 16 Health: 0 Eccentricity: 0.01503896713 Time of Applicability(s): 233472 Orbital Inclination(rad): 0.9580752648 Rate of Right Ascen(r/s): -7.714607058e-09 SQRT(A) (m 1/2): 5153.572754 Right Ascen at Week(rad): 1.931653324 Argument of Perigee(rad): 0.920730398 Mean Anom(rad): 1.044610207 Af0(s): 0.000147720166 Af1(s/s): 7.275958e-12 week: 353 ******** Week 353 almanac for PRN-17 ******** ID: 17 Health: 0 Eccentricity: 0.01283693314 Time of Applicability(s): 233472 Orbital Inclination(rad): 0.9602683779 Rate of Right Ascen(r/s): -7.794610391e-09 SQRT(A) (m 1/2): 5153.519531 Right Ascen at Week(rad): 2.949123381 Argument of Perigee(rad): -1.135898168 Mean Anom(rad): -0.06615441953 Af0(s): -2.487125244e-05 Af1(s/s): -1.091394e-11 week: 353 ******** Week 353 almanac for PRN-18 ******** ID: 18 Health: 0 Eccentricity: 0.005687713623 Time of Applicability(s): 233472 Orbital Inclination(rad): 0.9722825634 Rate of Right Ascen(r/s): -8.011762293e-09 SQRT(A) (m 1/2): 5153.598633 Right Ascen at Week(rad): -2.324349784 Argument of Perigee(rad): -2.856765828 Mean Anom(rad): -2.046893256 Af0(s): -0.000357241626 Af1(s/s): 1.091394e-11 week: 353 ******** Week 353 almanac for PRN-19 ******** ID: 19 Health: 0 Eccentricity: 0.01096200943 Time of Applicability(s): 233472 Orbital Inclination(rad): 0.9594654349 Rate of Right Ascen(r/s): -7.806039438e-09 SQRT(A) (m 1/2): 5153.662109 Right Ascen at Week(rad): 2.993026091 Argument of Perigee(rad): 2.914333925 Mean Anom(rad): 1.800865358 Af0(s): 0.0005418918335 Af1(s/s): 3.637979e-12 week: 353 ******** Week 353 almanac for PRN-21 ******** ID: 21 Health: 0 Eccentricity: 0.0005459785461 Time of Applicability(s): 233472 Orbital Inclination(rad): 0.9619881142 Rate of Right Ascen(r/s): -7.897471818e-09 SQRT(A) (m 1/2): 5153.691895 Right Ascen at Week(rad): -1.275504651 Argument of Perigee(rad): -0.492296979 Mean Anom(rad): 2.720765848 Af0(s): 0.0002999623779 Af1(s/s): 7.275958e-12 week: 353 ******** Week 353 almanac for PRN-22 ******** ID: 22 Health: 0 Eccentricity: 0.01224136353 Time of Applicability(s): 233472 Orbital Inclination(rad): 0.9575179983 Rate of Right Ascen(r/s): -7.748894201e-09 SQRT(A) (m 1/2): 5153.578125 Right Ascen at Week(rad): 1.934991679 Argument of Perigee(rad): -0.9976488986 Mean Anom(rad): 0.58767568 Af0(s): -4.672780762e-05 Af1(s/s): 3.637979e-12 week: 353 ******** Week 353 almanac for PRN-23 ******** ID: 23 Health: 0 Eccentricity: 0.00599861145 Time of Applicability(s): 233472 Orbital Inclination(rad): 0.9870950654 Rate of Right Ascen(r/s): -7.668890868e-09 SQRT(A) (m 1/2): 5153.65625 Right Ascen at Week(rad): -1.317582014 Argument of Perigee(rad): -2.748802568 Mean Anom(rad): 3.140306972 Af0(s): 0.0004733074707 Af1(s/s): 3.637979e-12 week: 353 ******** Week 353 almanac for PRN-24 ******** ID: 24 Health: 0 Eccentricity: 0.01782846451 Time of Applicability(s): 233472 Orbital Inclination(rad): 0.9348138842 Rate of Right Ascen(r/s): -8.046049436e-09 SQRT(A) (m 1/2): 5153.589355 Right Ascen at Week(rad): 0.6890112898 Argument of Perigee(rad): 1.129269394 Mean Anom(rad): -1.824684005 Af0(s): -0.0001296319824 Af1(s/s): 1.455192e-11 week: 353 ******** Week 353 almanac for PRN-25 ******** ID: 25 Health: 0 Eccentricity: 0.01292896271 Time of Applicability(s): 233472 Orbital Inclination(rad): 0.9471875965 Rate of Right Ascen(r/s): -7.851755628e-09 SQRT(A) (m 1/2): 5153.688965 Right Ascen at Week(rad): 1.821282732 Argument of Perigee(rad): 1.149117143 Mean Anom(rad): 2.712793343 Af0(s): 0.0003557342773 Af1(s/s): -3.637979e-12 week: 353 ******** Week 353 almanac for PRN-26 ******** ID: 26 Health: 0 Eccentricity: 0.01096343994 Time of Applicability(s): 233472 Orbital Inclination(rad): 0.927928947 Rate of Right Ascen(r/s): -8.068907531e-09 SQRT(A) (m 1/2): 5153.631348 Right Ascen at Week(rad): 1.74763555 Argument of Perigee(rad): 0.6999199305 Mean Anom(rad): 1.881264152 Af0(s): -0.0002456978271 Af1(s/s): -7.275958e-12 week: 353 ******** Week 353 almanac for PRN-27 ******** ID: 27 Health: 0 Eccentricity: 0.01415252686 Time of Applicability(s): 233472 Orbital Inclination(rad): 0.9536351095 Rate of Right Ascen(r/s): -7.851755628e-09 SQRT(A) (m 1/2): 5153.618652 Right Ascen at Week(rad): 2.876817309 Argument of Perigee(rad): 0.8652292054 Mean Anom(rad): 0.1376597955 Af0(s): -1.431981201e-05 Af1(s/s): -7.275958e-12 week: 353 ******** Week 353 almanac for PRN-28 ******** ID: 28 Health: 0 Eccentricity: 0.0004081726074 Time of Applicability(s): 233472 Orbital Inclination(rad): 0.9617304534 Rate of Right Ascen(r/s): -7.794610391e-09 SQRT(A) (m 1/2): 5153.703125 Right Ascen at Week(rad): 0.7703650771 Argument of Perigee(rad): 0.3937963875 Mean Anom(rad): -2.826462967 Af0(s): -0.0004831052368 Af1(s/s): 3.637979e-12 week: 353 ******** Week 353 almanac for PRN-29 ******** ID: 29 Health: 0 Eccentricity: 0.00324344635 Time of Applicability(s): 233472 Orbital Inclination(rad): 0.9629168917 Rate of Right Ascen(r/s): -7.794610391e-09 SQRT(A) (m 1/2): 5153.741699 Right Ascen at Week(rad): 2.965698313 Argument of Perigee(rad): 2.752515056 Mean Anom(rad): 0.01437545229 Af0(s): -0.0003112674927 Af1(s/s): 7.275958e-12 week: 353 ******** Week 353 almanac for PRN-30 ******** ID: 30 Health: 0 Eccentricity: 0.007863044739 Time of Applicability(s): 233472 Orbital Inclination(rad): 0.9360003225 Rate of Right Ascen(r/s): -8.068907531e-09 SQRT(A) (m 1/2): 5153.71875 Right Ascen at Week(rad): 0.7883492791 Argument of Perigee(rad): -2.349332024 Mean Anom(rad): -2.907779303 Af0(s): 6.858436279e-05 Af1(s/s): 1.091394e-11 week: 353 ******** Week 353 almanac for PRN-31 ******** ID: 31 Health: 0 Eccentricity: 0.0108795166 Time of Applicability(s): 233472 Orbital Inclination(rad): 0.9545039658 Rate of Right Ascen(r/s): -7.863184676e-09 SQRT(A) (m 1/2): 5153.700195 Right Ascen at Week(rad): 0.8206681121 Argument of Perigee(rad): 0.930507653 Mean Anom(rad): 2.414966628 Af0(s): -0.0001364150513 Af1(s/s): 3.637979e-12 week: 353 ******** Week 353 almanac for PRN-32 ******** ID: 32 Health: 0 Eccentricity: 0.009171485901 Time of Applicability(s): 233472 Orbital Inclination(rad): 0.9676985974 Rate of Right Ascen(r/s): -7.600316584e-09 SQRT(A) (m 1/2): 5153.665039 Right Ascen at Week(rad): -0.2590517547 Argument of Perigee(rad): -2.028658134 Mean Anom(rad): 0.7503660273 Af0(s): -0.0001303856567 Af1(s/s): 1.818989e-11 week: 353